Hourly Data Report for June 20, 2003

SHERBROOKE A
QUEBEC

45°26'00.000" N
71°41'00.000" W
241.40 m
7028124
71610
YSC

Download Data

Hourly Data (June 2003)
Hourly Data Report for June 20, 2003
TIME
LST
Temp Definition
°C
Dew Point Definition
°C
Rel Hum Definition
%
Precip. Amount Definition
mm

Wind Dir Definition
10's deg

Wind Spd Definition
km/h
Visibility Definition
km
Stn Press Definition
kPa
Hmdx Definition


Wind Chill Definition


Weather Definition


00:00 12.4 11.9 97   32 4 1.9 98.32      
01:00 11.9 10.1 89   1 4 15.0 98.36      
02:00 7.5 6.6 94     0 15.0 98.42      
03:00 6.7 6.1 96     0 15.0 98.48      
04:00 6.9 6.3 96   22 4 12.9 98.55      
05:00 7.9 7.9 100     0 15.0 98.61      
06:00 10.7 8.7 87   7 4 15.0 98.67      
07:00 12.1 9.7 85   36 6 24.1 98.70     Mainly Clear
08:00 15.0 9.9 72   35 7 24.1 98.71     Mainly Clear
09:00 16.7 10.1 65   7 7 24.1 98.72     Clear
10:00 17.9 9.5 58   1 7 24.1 98.72     Mainly Clear
11:00 19.1 8.9 52   4 7 24.1 98.68     Mainly Clear
12:00 20.0 10.2 53   4 4 24.1 98.65     Mainly Clear
13:00 21.8 12.5 55   28 7 24.1 98.64     Mainly Clear
14:00 22.1 11.4 51   34 13 24.1 98.62     Mainly Clear
15:00 22.1 11.3 50   32 7 24.1 98.62     Mainly Clear
16:00 22.5 11.5 50   29 7 24.1 98.59 25   Mainly Clear
17:00 22.2 10.6 48   2 7 15.0 98.55      
18:00 21.6 9.7 47   4 6 15.0 98.55      
19:00 18.9 12.2 65     0 15.0 98.55      
20:00 13.4 11.0 85   27 6 15.0 98.58      
21:00 10.5 9.2 92   34 6 15.0 98.65      
22:00 10.9 9.9 94   11 4 15.0 98.64      
23:00 9.6 8.9 95   9 6 15.0 98.66      

Notes on Data Quality.

Legend

  • E = Estimated
  • M = Missing
  • NA = Not Available*
  • [empty] = Indicates an unobserved value
Date modified: